| time (UTC) | temp C | wind direction | speed KPH | gust KPH | rain 1hr cm | rain 24hr cm | rain mn cm | humidity % | barometer mb |
| 20260503050005 | 3 | 280 | 4.8 | 4.8 | 0.00 | 0.00 | 0.00 | 50 | 1012.1 |
| 20260503045504 | 3 | 280 | 0.0 | 3.2 | 0.00 | 0.00 | 0.00 | 50 | 1012.3 |
| 20260503045004 | 3 | 280 | 3.2 | 4.8 | 0.00 | 0.00 | 0.00 | 48 | 1012.8 |
| 20260503044504 | 3 | 280 | 3.2 | 4.8 | 0.00 | 0.00 | 0.00 | 48 | 1012.9 |
| 20260503044003 | 4 | 280 | 0.0 | 3.2 | 0.00 | 0.00 | 0.00 | 46 | 1012.9 |
| 20260503043503 | 4 | 280 | 3.2 | 4.8 | 0.00 | 0.00 | 0.00 | 46 | 1012.9 |
| 20260503043003 | 5 | 280 | 1.6 | 3.2 | 0.00 | 0.00 | 0.00 | 46 | 1012.8 |
| 20260503042503 | 5 | 280 | 1.6 | 4.8 | 0.00 | 0.00 | 0.00 | 46 | 1012.6 |
| 20260503042003 | 5 | 280 | 1.6 | 4.8 | 0.00 | 0.00 | 0.00 | 44 | 1012.4 |
| 20260503041503 | 5 | 280 | 1.6 | 4.8 | 0.00 | 0.00 | 0.00 | 44 | 1012.3 |
| 20260503041004 | 5 | 280 | 3.2 | 4.8 | 0.00 | 0.00 | 0.00 | 43 | 1012.4 |
| 20260503040504 | 5 | 280 | 1.6 | 4.8 | 0.00 | 0.00 | 0.00 | 43 | 1012.4 |
| 20260503040004 | 6 | 280 | 3.2 | 4.8 | 0.00 | 0.00 | 0.00 | 42 | 1012.4 |
| 20260503035503 | 6 | 280 | 4.8 | 8.0 | 0.00 | 0.00 | 0.00 | 41 | 1012.5 |
| 20260503035004 | 6 | 280 | 4.8 | 4.8 | 0.00 | 0.00 | 0.00 | 41 | 1012.8 |
| 20260503034503 | 6 | 280 | 0.0 | 4.8 | 0.00 | 0.00 | 0.00 | 40 | 1012.9 |
| 20260503034004 | 6 | 280 | 4.8 | 4.8 | 0.00 | 0.00 | 0.00 | 39 | 1012.8 |
| 20260503033504 | 6 | 280 | 4.8 | 4.8 | 0.00 | 0.00 | 0.00 | 38 | 1012.8 |
| 20260503032504 | 7 | 280 | 1.6 | 3.2 | 0.00 | 0.00 | 0.00 | 37 | 1012.8 |
| 20260503031504 | 8 | 280 | 0.0 | 3.2 | 0.00 | 0.00 | 0.00 | 36 | 1012.5 |
| 20260503031004 | 8 | 280 | 3.2 | 4.8 | 0.00 | 0.00 | 0.00 | 35 | 1012.4 |
| 20260503030504 | 8 | 280 | 3.2 | 4.8 | 0.00 | 0.00 | 0.00 | 34 | 1012.3 |
| 20260503030004 | 9 | 280 | 3.2 | 4.8 | 0.00 | 0.00 | 0.00 | 31 | 1012.1 |
| 20260503025504 | 9 | 280 | 3.2 | 4.8 | 0.00 | 0.00 | 0.00 | 31 | 1012.2 |
| 20260503025004 | 9 | 278 | 4.8 | 9.7 | 0.00 | 0.00 | 0.00 | 31 | 1012.5 |
| 20260503024003 | 9 | 291 | 3.2 | 4.8 | 0.00 | 0.00 | 0.00 | 32 | 1012.3 |
| 20260503023504 | 10 | 291 | 0.0 | 4.8 | 0.00 | 0.00 | 0.00 | 31 | 1012.3 |
| 20260503023003 | 10 | 285 | 3.2 | 8.0 | 0.00 | 0.00 | 0.00 | 32 | 1012.3 |
| 20260503022503 | 10 | 273 | 4.8 | 9.7 | 0.00 | 0.00 | 0.00 | 32 | 1012.2 |
| 20260503022004 | 10 | 283 | 4.8 | 8.0 | 0.00 | 0.00 | 0.00 | 32 | 1012.2 |
| 20260503021504 | 10 | 245 | 3.2 | 4.8 | 0.00 | 0.00 | 0.00 | 32 | 1012.1 |
| 20260503021003 | 11 | 119 | 4.8 | 8.0 | 0.00 | 0.00 | 0.00 | 32 | 1011.9 |
| 20260503020503 | 11 | 119 | 3.2 | 4.8 | 0.00 | 0.00 | 0.00 | 31 | 1011.8 |
| 20260503020004 | 11 | 119 | 3.2 | 4.8 | 0.00 | 0.00 | 0.00 | 30 | 1011.7 |
| 20260503015504 | 11 | 119 | 1.6 | 4.8 | 0.00 | 0.00 | 0.00 | 31 | 1011.6 |
| 20260503015004 | 11 | 119 | 4.8 | 4.8 | 0.00 | 0.00 | 0.00 | 29 | 1011.6 |
| 20260503014504 | 11 | 183 | 3.2 | 9.7 | 0.00 | 0.00 | 0.00 | 29 | 1011.6 |
| 20260503014004 | 12 | 206 | 9.7 | 20.9 | 0.00 | 0.00 | 0.00 | 28 | 1011.8 |
| 20260503013004 | 12 | 178 | 17.7 | 20.9 | 0.00 | 0.00 | 0.00 | 27 | 1012.0 |
| 20260503012503 | 12 | 176 | 4.8 | 8.0 | 0.00 | 0.00 | 0.00 | 28 | 1012.0 |
| 20260503012004 | 12 | 259 | 4.8 | 12.9 | 0.00 | 0.00 | 0.00 | 27 | 1012.1 |
| 20260503011504 | 12 | 269 | 8.0 | 20.9 | 0.00 | 0.00 | 0.00 | 26 | 1012.2 |
| 20260503011004 | 12 | 262 | 8.0 | 16.1 | 0.00 | 0.00 | 0.00 | 26 | 1012.2 |
| 20260503010504 | 12 | 251 | 8.0 | 12.9 | 0.00 | 0.00 | 0.00 | 26 | 1012.3 |
| 20260503010004 | 12 | 215 | 8.0 | 11.3 | 0.00 | 0.00 | 0.00 | 21 | 1012.4 |
| 20260503005004 | 12 | 154 | 4.8 | 9.7 | 0.00 | 0.00 | 0.00 | 21 | 1012.1 |
| 20260503004004 | 12 | 113 | 8.0 | 14.5 | 0.00 | 0.00 | 0.00 | 19 | 1011.8 |
| 20260503003504 | 12 | 102 | 8.0 | 11.3 | 0.00 | 0.00 | 0.00 | 20 | 1011.9 |
| 20260503003004 | 12 | 130 | 8.0 | 19.3 | 0.00 | 0.00 | 0.00 | 19 | 1011.9 |
| 20260503002504 | 13 | 126 | 11.3 | 19.3 | 0.00 | 0.00 | 0.00 | 19 | 1011.9 |
| 20260503002003 | 13 | 119 | 11.3 | 19.3 | 0.00 | 0.00 | 0.00 | 19 | 1011.9 |
| 20260503001504 | 13 | 117 | 8.0 | 16.1 | 0.00 | 0.00 | 0.00 | 19 | 1011.9 |
| 20260503001004 | 13 | 126 | 11.3 | 19.3 | 0.00 | 0.00 | 0.00 | 20 | 1011.9 |
| 20260503000504 | 13 | 112 | 11.3 | 19.3 | 0.00 | 0.00 | 0.00 | 19 | 1011.9 |
| 20260503000003 | 13 | 69 | 8.0 | 16.1 | 0.00 | 0.00 | 0.00 | 19 | 1011.9 |
| 20260502235504 | 13 | 103 | 9.7 | 22.5 | 0.00 | 0.00 | 0.00 | 19 | 1011.9 |
| 20260502235003 | 13 | 112 | 11.3 | 22.5 | 0.00 | 0.00 | 0.00 | 19 | 1011.8 |
| 20260502234504 | 13 | 109 | 14.5 | 19.3 | 0.00 | 0.00 | 0.00 | 19 | 1011.8 |
| 20260502234003 | 13 | 78 | 6.4 | 16.1 | 0.00 | 0.00 | 0.00 | 19 | 1011.8 |
| 20260502233503 | 13 | 56 | 9.7 | 22.5 | 0.00 | 0.00 | 0.00 | 20 | 1011.8 |
| 20260502233003 | 14 | 55 | 14.5 | 22.5 | 0.00 | 0.00 | 0.00 | 18 | 1011.8 |
| 20260502231504 | 14 | 78 | 11.3 | 20.9 | 0.00 | 0.00 | 0.00 | 19 | 1011.7 |
| 20260502230504 | 14 | 52 | 11.3 | 19.3 | 0.00 | 0.00 | 0.00 | 20 | 1011.7 |
| 20260502230004 | 14 | 75 | 11.3 | 19.3 | 0.00 | 0.00 | 0.00 | 19 | 1011.7 |
| 20260502225503 | 15 | 72 | 16.1 | 24.1 | 0.00 | 0.00 | 0.00 | 18 | 1011.8 |
| 20260502225004 | 15 | 93 | 11.3 | 22.5 | 0.00 | 0.00 | 0.00 | 19 | 1011.7 |
| 20260502224504 | 15 | 71 | 12.9 | 24.1 | 0.00 | 0.00 | 0.00 | 18 | 1011.8 |
| 20260502224003 | 15 | 73 | 20.9 | 29.0 | 0.00 | 0.00 | 0.00 | 19 | 1011.9 |
| 20260502223503 | 15 | 57 | 16.1 | 24.1 | 0.00 | 0.00 | 0.00 | 20 | 1012.3 |
| 20260502223004 | 14 | 33 | 11.3 | 25.7 | 0.00 | 0.00 | 0.00 | 21 | 1012.3 |
| 20260502222503 | 14 | 74 | 12.9 | 22.5 | 0.00 | 0.00 | 0.00 | 20 | 1012.3 |
| 20260502222003 | 14 | 108 | 8.0 | 12.9 | 0.00 | 0.00 | 0.00 | 20 | 1012.4 |
| 20260502221003 | 15 | 31 | 8.0 | 14.5 | 0.00 | 0.00 | 0.00 | 20 | 1012.3 |
| 20260502220504 | 15 | 104 | 8.0 | 16.1 | 0.00 | 0.00 | 0.00 | 20 | 1012.1 |
| 20260502220004 | 15 | 98 | 8.0 | 22.5 | 0.00 | 0.00 | 0.00 | 19 | 1011.9 |
| 20260502215503 | 15 | 175 | 12.9 | 27.4 | 0.00 | 0.00 | 0.00 | 20 | 1012.1 |
| 20260502214503 | 16 | 138 | 22.5 | 25.7 | 0.00 | 0.00 | 0.00 | 19 | 1012.5 |
| 20260502214004 | 16 | 147 | 19.3 | 25.7 | 0.00 | 0.00 | 0.00 | 20 | 1012.7 |
| 20260502213503 | 16 | 180 | 11.3 | 19.3 | 0.00 | 0.00 | 0.00 | 19 | 1012.9 |
| 20260502213004 | 16 | 167 | 14.5 | 20.9 | 0.00 | 0.00 | 0.00 | 19 | 1012.9 |
| 20260502212003 | 16 | 176 | 16.1 | 25.7 | 0.00 | 0.00 | 0.00 | 20 | 1012.9 |
| 20260502211503 | 16 | 159 | 16.1 | 24.1 | 0.00 | 0.00 | 0.00 | 19 | 1013.0 |
| 20260502211004 | 16 | 112 | 14.5 | 24.1 | 0.00 | 0.00 | 0.00 | 19 | 1012.9 |
| 20260502205503 | 16 | 205 | 16.1 | 27.4 | 0.00 | 0.00 | 0.00 | 18 | 1013.1 |
| 20260502205004 | 16 | 145 | 17.7 | 25.7 | 0.00 | 0.00 | 0.00 | 20 | 1013.1 |
| 20260502204503 | 16 | 133 | 16.1 | 24.1 | 0.00 | 0.00 | 0.00 | 20 | 1013.2 |
| 20260502204004 | 16 | 144 | 16.1 | 22.5 | 0.00 | 0.00 | 0.00 | 19 | 1013.2 |
| 20260502203504 | 16 | 131 | 14.5 | 24.1 | 0.00 | 0.00 | 0.00 | 21 | 1013.3 |
| 20260502203004 | 16 | 123 | 16.1 | 24.1 | 0.00 | 0.00 | 0.00 | 20 | 1013.3 |
| 20260502202503 | 16 | 128 | 17.7 | 25.7 | 0.00 | 0.00 | 0.00 | 20 | 1013.3 |
| 20260502201504 | 16 | 86 | 12.9 | 22.5 | 0.00 | 0.00 | 0.00 | 20 | 1013.4 |
| 20260502201004 | 16 | 66 | 9.7 | 16.1 | 0.00 | 0.00 | 0.00 | 19 | 1013.6 |
| 20260502200504 | 16 | 71 | 11.3 | 24.1 | 0.00 | 0.00 | 0.00 | 18 | 1013.6 |
| 20260502195503 | 15 | 159 | 3.2 | 9.7 | 0.00 | 0.00 | 0.00 | 18 | 1013.8 |
| 20260502195003 | 15 | 168 | 8.0 | 20.9 | 0.00 | 0.00 | 0.00 | 18 | 1014.2 |
| 20260502194504 | 16 | 141 | 8.0 | 12.9 | 0.00 | 0.00 | 0.00 | 19 | 1014.2 |
| 20260502194003 | 16 | 177 | 8.0 | 19.3 | 0.00 | 0.00 | 0.00 | 19 | 1014.3 |
| 20260502193504 | 16 | 107 | 9.7 | 19.3 | 0.00 | 0.00 | 0.00 | 19 | 1014.2 |
| 20260502193003 | 16 | 119 | 16.1 | 25.7 | 0.00 | 0.00 | 0.00 | 19 | 1014.2 |
| 20260502192504 | 16 | 134 | 6.4 | 22.5 | 0.00 | 0.00 | 0.00 | 19 | 1014.2 |
| 20260502191503 | 16 | 112 | 11.3 | 24.1 | 0.00 | 0.00 | 0.00 | 18 | 1014.3 |
| 20260502191004 | 16 | 45 | 11.3 | 20.9 | 0.00 | 0.00 | 0.00 | 20 | 1014.5 |
| 20260502190504 | 16 | 349 | 8.0 | 19.3 | 0.00 | 0.00 | 0.00 | 16 | 1014.8 |
| 20260502190004 | 16 | 81 | 4.8 | 9.7 | 0.00 | 0.00 | 0.00 | 14 | 1014.9 |
| 20260502185503 | 16 | 31 | 12.9 | 20.9 | 0.00 | 0.00 | 0.00 | 15 | 1014.9 |
| 20260502185003 | 16 | 36 | 8.0 | 14.5 | 0.00 | 0.00 | 0.00 | 14 | 1015.0 |
| 20260502184003 | 16 | 65 | 1.6 | 11.3 | 0.00 | 0.00 | 0.00 | 12 | 1015.1 |
| 20260502183504 | 16 | 342 | 4.8 | 11.3 | 0.00 | 0.00 | 0.00 | 15 | 1015.1 |
| 20260502182504 | 15 | 347 | 8.0 | 11.3 | 0.00 | 0.00 | 0.00 | 11 | 1015.3 |
| 20260502182003 | 15 | 328 | 1.6 | 8.0 | 0.00 | 0.00 | 0.00 | 14 | 1015.4 |
| 20260502180503 | 15 | 122 | 4.8 | 14.5 | 0.00 | 0.00 | 0.00 | 14 | 1015.5 |
| 20260502170504 | 13 | 89 | 3.2 | 9.7 | 0.00 | 0.05 | 0.00 | 21 | 1016.3 |
| 20260502164003 | 11 | 228 | 4.8 | 12.9 | 0.00 | 0.08 | 0.00 | 21 | 1017.3 |
| 20260502163504 | 11 | 166 | 3.2 | 11.3 | 0.00 | 0.08 | 0.00 | 21 | 1017.3 |
| 20260502162003 | 11 | 129 | 3.2 | 14.5 | 0.00 | 0.10 | 0.00 | 23 | 1017.3 |
| 20260502161503 | 11 | 155 | 4.8 | 9.7 | 0.00 | 0.10 | 0.00 | 23 | 1017.4 |
| 20260502161004 | 11 | 137 | 8.0 | 14.5 | 0.00 | 0.10 | 0.00 | 22 | 1017.3 |
| 20260502160504 | 11 | 137 | 8.0 | 19.3 | 0.00 | 0.10 | 0.00 | 24 | 1017.3 |
| 20260502152004 | 9 | 177 | 3.2 | 4.8 | 0.00 | 0.18 | 0.00 | 31 | 1017.3 |
| 20260502151503 | 8 | 130 | 1.6 | 3.2 | 0.00 | 0.18 | 0.00 | 35 | 1017.2 |
| 20260502150504 | 7 | 86 | 1.6 | 4.8 | 0.00 | 0.20 | 0.00 | 37 | 1017.4 |
| 20260502130504 | -1 | 27 | 0.0 | 0.0 | 0.00 | 0.25 | 0.00 | 75 | 1019.0 |
| 20260502123504 | -5 | 27 | 0.0 | 1.6 | 0.00 | 0.25 | 0.00 | 86 | 1018.6 |
| 20260502123004 | -5 | 27 | 1.6 | 4.8 | 0.00 | 0.25 | 0.00 | 86 | 1018.7 |
| 20260502122503 | -5 | 27 | 0.0 | 3.2 | 0.00 | 0.25 | 0.00 | 83 | 1018.7 |
| 20260502122003 | -5 | 27 | 1.6 | 3.2 | 0.00 | 0.25 | 0.00 | 83 | 1018.6 |
| 20260502121504 | -5 | 27 | 1.6 | 3.2 | 0.00 | 0.25 | 0.00 | 83 | 1018.7 |
| 20260502120504 | -5 | 325 | 0.0 | 0.0 | 0.00 | 0.25 | 0.00 | 82 | 1018.7 |
| 20260502115504 | -5 | 325 | 3.2 | 8.0 | 0.00 | 0.25 | 0.00 | 82 | 1018.6 |
| 20260502114504 | -5 | 325 | 0.0 | 0.0 | 0.00 | 0.25 | 0.00 | 81 | 1018.6 |
| 20260502114004 | -5 | 325 | 0.0 | 0.0 | 0.00 | 0.25 | 0.00 | 81 | 1018.7 |
| 20260502113503 | -5 | 325 | 3.2 | 8.0 | 0.00 | 0.25 | 0.00 | 81 | 1018.7 |
| 20260502113004 | -5 | 325 | 0.0 | 4.8 | 0.00 | 0.25 | 0.00 | 81 | 1018.6 |
| 20260502112503 | -5 | 325 | 1.6 | 4.8 | 0.00 | 0.25 | 0.00 | 81 | 1018.7 |
| 20260502112003 | -5 | 325 | 3.2 | 4.8 | 0.00 | 0.25 | 0.00 | 81 | 1018.7 |
| 20260502111004 | -5 | 325 | 1.6 | 9.7 | 0.00 | 0.25 | 0.00 | 81 | 1018.7 |
| 20260502110504 | -5 | 325 | 3.2 | 8.0 | 0.00 | 0.25 | 0.00 | 82 | 1018.7 |
| 20260502110004 | -5 | 325 | 0.0 | 0.0 | 0.00 | 0.25 | 0.00 | 81 | 1018.7 |
| 20260502105504 | -5 | 325 | 0.0 | 4.8 | 0.00 | 0.25 | 0.00 | 81 | 1018.7 |
| 20260502105004 | -5 | 325 | 0.0 | 4.8 | 0.00 | 0.25 | 0.00 | 81 | 1018.8 |
| 20260502104003 | -5 | 325 | 1.6 | 3.2 | 0.00 | 0.25 | 0.00 | 81 | 1018.8 |
| 20260502103504 | -5 | 325 | 0.0 | 0.0 | 0.00 | 0.25 | 0.00 | 81 | 1018.8 |
| 20260502103003 | -5 | 325 | 0.0 | 4.8 | 0.00 | 0.25 | 0.00 | 81 | 1018.8 |
| 20260502102504 | -5 | 325 | 4.8 | 4.8 | 0.00 | 0.25 | 0.00 | 81 | 1018.8 |
| 20260502102003 | -5 | 325 | 0.0 | 0.0 | 0.00 | 0.25 | 0.00 | 81 | 1018.6 |
| 20260502101503 | -5 | 325 | 1.6 | 4.8 | 0.00 | 0.25 | 0.00 | 80 | 1018.6 |
| 20260502101004 | -4 | 325 | 0.0 | 1.6 | 0.00 | 0.25 | 0.00 | 80 | 1018.6 |
| 20260502100504 | -4 | 325 | 1.6 | 4.8 | 0.00 | 0.25 | 0.00 | 80 | 1018.6 |
| 20260502091504 | -3 | 325 | 0.0 | 0.0 | 0.00 | 0.25 | 0.00 | 79 | 1018.5 |
| 20260502091003 | -3 | 325 | 0.0 | 0.0 | 0.00 | 0.25 | 0.00 | 79 | 1018.5 |
| 20260502090504 | -3 | 325 | 0.0 | 0.0 | 0.00 | 0.25 | 0.00 | 78 | 1018.5 |
| 20260502071503 | -2 | 325 | 0.0 | 4.8 | 0.00 | 0.25 | 0.00 | 70 | 1019.1 |
| 20260502071004 | -2 | 325 | 3.2 | 4.8 | 0.00 | 0.25 | 0.00 | 70 | 1019.1 |
| 20260502070504 | -2 | 325 | 1.6 | 3.2 | 0.00 | 0.25 | 0.00 | 70 | 1019.1 |
| 20260502070004 | -1 | 325 | 0.0 | 0.0 | 0.00 | 0.25 | 0.00 | 69 | 1019.1 |
| 20260502065503 | -1 | 325 | 0.0 | 0.0 | 0.00 | 0.25 | 0.00 | 69 | 1019.1 |
| 20260502065003 | -1 | 325 | 0.0 | 0.0 | 0.00 | 0.25 | 0.00 | 68 | 1019.1 |
| 20260502064504 | -1 | 325 | 0.0 | 1.6 | 0.00 | 0.25 | 0.00 | 67 | 1019.1 |
| 20260502064004 | -1 | 325 | 3.2 | 4.8 | 0.00 | 0.25 | 0.00 | 66 | 1019.1 |
| 20260502063504 | -1 | 325 | 1.6 | 4.8 | 0.00 | 0.25 | 0.00 | 66 | 1019.2 |
| 20260502063003 | -1 | 282 | 0.0 | 0.0 | 0.00 | 0.25 | 0.00 | 65 | 1019.2 |
| 20260502062504 | 0 | 282 | 0.0 | 0.0 | 0.00 | 0.25 | 0.00 | 64 | 1019.2 |
| 20260502061504 | 0 | 282 | 0.0 | 3.2 | 0.00 | 0.25 | 0.00 | 64 | 1019.1 |
| 20260502061004 | 0 | 282 | 3.2 | 4.8 | 0.00 | 0.25 | 0.00 | 63 | 1019.1 |
| 20260502060503 | 0 | 282 | 3.2 | 3.2 | 0.00 | 0.25 | 0.00 | 62 | 1019.1 |
| 20260502060004 | 0 | 282 | 3.2 | 4.8 | 0.00 | 0.25 | 0.00 | 61 | 1019.1 |
| 20260502055503 | 0 | 327 | 3.2 | 4.8 | 0.00 | 0.25 | 0.25 | 60 | 1019.1 |
| 20260502054504 | 0 | 327 | 3.2 | 4.8 | 0.00 | 0.25 | 0.25 | 60 | 1019.1 |
| 20260502054004 | 1 | 327 | 3.2 | 8.0 | 0.00 | 0.25 | 0.25 | 59 | 1018.9 |
| 20260502053003 | 1 | 230 | 0.0 | 4.8 | 0.00 | 0.25 | 0.25 | 58 | 1018.9 |
| 20260502052503 | 1 | 230 | 4.8 | 8.0 | 0.00 | 0.25 | 0.25 | 59 | 1018.9 |
| 20260502052003 | 1 | 243 | 6.4 | 9.7 | 0.00 | 0.25 | 0.25 | 58 | 1018.9 |
| 20260502051503 | 1 | 267 | 3.2 | 8.0 | 0.00 | 0.25 | 0.25 | 58 | 1019.0 |
| 20260502051004 | 1 | 267 | 3.2 | 4.8 | 0.00 | 0.25 | 0.25 | 59 | 1018.9 |
| 20260502050504 | 1 | 267 | 4.8 | 4.8 | 0.00 | 0.25 | 0.25 | 59 | 1018.9 |